Location: ???????
(55.3754°N, 39.3545°E)
Time: 15:33:56
(UTC+00:00)

Daily predictions for brighter satellites

Satellite Brightness Start Highest point End
(mag) Time Altitude Azimuth Time Altitude Azimuth Time Altitude Azimuth
Cosmos 2369 Rocket 3.8 17:00:46 10° NNW 17:05:14 23° NNE 17:09:41 10° E
Feng Yun 1-1 Rocket 4.2 17:03:05 10° SSE 17:08:39 82° ENE 17:14:07 10° NNW
CSL-04 Rocket 4.1 17:03:20 10° S 17:08:53 72° WSW 17:14:28 10° NNW
Cosmos 372 Rocket 4.4 17:05:05 10° SW 17:10:19 72° WNW 17:15:34 10° NNE
Meteor 1-21 Rocket 4.4 17:05:44 10° N 17:11:16 57° ENE 17:16:51 10° SSE
Cosmos 2074 Rocket 4.3 17:05:55 10° SSW 17:12:09 76° WNW 17:18:28 10° N
COBE Rocket 4.4 17:09:11 10° N 17:14:06 69° WNW 17:19:06 10° SSW
MOS 1 4.3 17:08:29 10° SSE 17:14:08 80° ENE 17:19:49 10° NNW
Cosmos 1898 Rocket 3.6 17:08:55 10° SSW 17:14:09 84° WNW 17:19:24 10° NNE
NOSS 2-1 (E) 3.9 17:11:48 10° NW 17:14:40 34° NNE 17:17:54 10° E
Cosmos 2278 Rocket 2.3 17:11:25 10° NNW 17:17:08 75° NE 17:22:48 10° SE
NOSS 2-1 (C) 3.8 17:14:33 10° NW 17:17:24 37° NNE 17:20:44 10° E
NOSS 2-1 (D) 3.6 17:15:06 10° NW 17:18:00 41° NNE 17:21:26 10° ESE
CZ-4B R/B 3.3 17:13:06 10° SSE 17:18:40 77° ENE 17:24:20 10° NNW
CZ-4B DEB 4.3 17:13:31 10° SSE 17:19:00 83° WSW 17:24:33 10° NNW
COSMOS 2428 3.2 17:14:28 10° S 17:19:44 40° ESE 17:25:03 10° NE
USA 234 3.5 17:13:43 10° ENE 17:20:05 50° SE 17:26:25 10° SW
SL-8 Rocket 4.2 17:15:46 10° SSE 17:21:45 50° E 17:27:49 10° NNE
BREEZE-M DEB (TANK) 3.6 17:20:25 10° SSW 17:22:20 21° SSE 17:25:13 10° E
Cosmos 1703 Rocket 4.4 17:18:52 10° NNW 17:23:05 52° W 17:27:16 10° S
BREEZE-M DEB (TANK) 3.2 17:21:21 10° SW 17:23:20 24° S 17:25:12 12° ESE
Cosmos 1680 Rocket 4.2 17:20:20 10° NW 17:25:24 54° WSW 17:30:26 10° S
Cosmos 1378 Rocket 4.3 17:22:44 10° N 17:26:50 36° ENE 17:30:36 12° SE
USA 238 DEB 4.0 17:19:47 10° NW 17:26:59 89° NE 17:34:38 11° SE
USA 238 4.0 17:19:56 10° NW 17:27:09 88° NE 17:34:48 11° SE
Cosmos 1943 Rocket 2.3 17:23:08 10° NW 17:28:52 83° WSW 17:34:31 10° SSE
ADEOS 3.6 17:24:12 10° SSE 17:29:25 86° ENE 17:34:40 10° NNW
Cosmos 1470 Rocket 4.4 17:25:22 10° SSW 17:29:40 55° WNW 17:33:57 10° N
PAYLOAD B 4.4 17:25:19 10° SSE 17:30:49 77° WSW 17:36:21 10° NNW
Cosmos 1937 Rocket 3.7 17:25:34 10° SSW 17:30:53 83° WNW 17:36:13 10° NNE
Cosmos 2333 Rocket 3.6 17:27:30 10° WSW 17:32:52 43° NW 17:38:17 10° NNE
IRS-1A Rocket 4.3 17:27:28 10° SSE 17:33:03 76° ENE 17:38:46 10° NNW
Cosmos 2366 rocket 4.1 17:27:45 10° SSE 17:33:44 55° E 17:39:42 10° NNE
Cosmos 1933 Rocket 3.6 17:32:38 10° S 17:37:01 89° E 17:41:28 10° NNE
Cosmos 2327 Rocket 4.5 17:30:51 10° S 17:37:01 78° E 17:43:21 10° NNE
COSMOS 2455 4.5 17:33:33 10° NW 17:38:43 28° N 17:43:52 10° ENE
Terra 2.0 17:37:29 10° S 17:42:11 75° WSW 17:46:54 10° NNW
In-Cosmos 22 Rocket 4.4 17:38:53 10° NNW 17:44:13 67° W 17:49:28 10° S
Cosmos 1733 Rocket 3.6 17:43:56 10° SSE 17:47:59 39° E 17:52:04 10° NNE
Aureole 3 3.8 17:43:52 10° N 17:47:59 60° ENE 17:52:30 13° SSE
SPOT 3 Rocket 4.0 17:44:39 14° SE 17:48:49 46° ENE 17:53:46 10° N
SL-16 R/B 4.1 17:49:54 10° E 17:50:07 10° E 17:50:57 10° E
YAOGAN 11 4.5 17:46:49 10° NNE 17:50:49 40° E 17:54:51 10° S
SKYMED 3 4.2 17:48:32 10° NNE 17:52:26 68° ESE 17:56:17 10° S
Helios 1A Rocket 3.0 17:49:42 10° N 17:52:54 58° WNW 17:56:04 10° SSW
Ariane Rocket 3.6 17:49:33 16° SE 17:53:13 40° ENE 17:57:54 10° N
Geosat 4.0 17:49:48 10° NE 17:54:48 62° ESE 17:59:45 10° SSW
SL-08 R/B 3.4 17:50:32 10° NNE 17:55:24 62° ESE 18:00:16 10° S
Lacrosse 5 rocket 0.6 17:54:43 10° SW 17:57:54 61° SSE 18:00:59 10° ENE
ERS-1 Rocket 3.7 17:53:32 10° S 17:58:25 52° W 18:03:20 10° NNW
Cosmos 614 Rocket 4.0 17:54:02 10° NNW 17:59:16 77° ENE 18:03:13 17° SE
Cosmos 2360 Rocket 3.6 17:55:01 10° WSW 18:00:21 41° NW 18:05:44 10° NNE
Spot 2 Rocket 3.5 17:56:24 11° SSE 18:01:19 88° WSW 18:06:23 10° NNW
Meteor 2-21 4.4 17:56:13 10° NNW 18:02:23 84° ENE 18:08:22 11° SSE
Cosmos 2218 Rocket 3.9 17:57:14 10° S 18:03:22 77° E 18:09:32 10° NNE
Meteor 1-11 4.2 17:59:05 10° NNW 18:04:42 87° ENE 18:09:38 13° SSE
Cosmos 1959 Rocket 4.5 17:59:21 10° S 18:05:42 77° E 18:12:01 10° NNE
Cosmos 1025 Rocket 3.3 18:01:55 10° N 18:06:03 47° ENE 18:08:31 22° SE
SeaSat 1 3.6 18:03:22 14° E 18:06:59 33° NE 18:11:22 10° NNW
Cosmos 1869 Rocket 3.9 18:02:46 10° SSW 18:07:08 68° WNW 18:11:34 10° N
ATLAS 3B R/B 3.8 18:00:35 10° W 18:08:17 56° NNW 18:16:01 10° ENE
ATLAS 5 CENTAUR R/B 3.2 18:05:43 10° NW 18:08:28 23° N 18:11:36 10° NE
Okean-O 2.7 18:05:33 13° S 18:09:27 78° WSW 18:13:52 10° NNW
Cosmos 2322 Rocket 3.9 18:05:26 10° WSW 18:10:35 36° NW 18:15:45 10° NNE
NOSS 3-4 (A) 3.6 18:07:21 10° S 18:12:13 38° ESE 18:17:35 10° ENE
Cosmos 1821 Rocket 4.0 18:06:13 10° S 18:12:25 68° E 18:18:44 10° NNE
NOSS 3-4 (C) 3.6 18:07:51 10° S 18:12:44 37° ESE 18:18:07 10° ENE
USA 186 1.9 18:15:49 26° SSW 18:16:39 40° W 18:18:47 10° NNW
CZ-4B R/B 3.4 18:13:46 21° SSE 18:17:01 68° ENE 18:21:47 10° NNW
USA 32 4.0 18:12:08 10° S 18:17:22 87° E 18:22:39 10° N
NOSS 3-1 (C) 4.1 18:13:20 10° NW 18:19:30 60° NNE 18:26:02 15° ESE
Cosmos 1400 Rocket 2.7 18:18:06 24° SSE 18:19:55 49° E 18:23:26 10° NNE
CZ-4 R/B 3.9 18:17:32 10° SW 18:20:09 18° W 18:22:45 10° NW
CZ-4B R/B 2.4 18:18:47 26° SSE 18:20:39 76° ENE 18:24:07 10° NNW
Helios 1B rocket 4.1 18:19:53 13° ENE 18:21:00 15° NE 18:23:04 10° NNE
Cosmos 2237 Rocket 2.4 18:17:18 10° S 18:22:45 50° ESE 18:28:15 10° NE
Cosmos 1980 3.8 18:18:24 10° S 18:23:52 54° ESE 18:29:22 10° NE
ASTEX 1 3.3 18:21:31 17° S 18:25:19 85° E 18:30:16 10° N
CZ-2C R/B 2.1 18:25:11 41° SE 18:25:55 58° ENE 18:28:48 10° N
ARIANE 6 FM1 Upper Stage 3.8 18:22:02 10° W 18:25:58 44° NNW 18:29:50 10° NE
Okean O Rocket 2.3 18:25:01 13° S 18:28:49 51° W 18:33:05 10° NNW
Cosmos 1000 Rocket 4.4 18:22:36 10° N 18:28:51 79° ENE 18:33:15 20° SSE
Cosmos 2297 4.3 18:24:14 10° NNW 18:29:49 47° NE 18:33:21 21° ESE
Cosmos 2242 Rocket 4.2 18:25:29 10° NNW 18:29:53 55° W 18:33:39 13° S
USA 245 3.7 18:28:00 23° SSE 18:30:42 84° WSW 18:35:50 10° NNW
Cosmos 2322 4.0 18:25:37 10° SW 18:31:20 73° NW 18:37:06 10° NNE
Cosmos 1602 3.4 18:30:25 10° N 18:32:23 36° NE 18:32:23 36° NE
Cosmos 1975 Rocket 4.4 18:30:10 10° N 18:33:59 27° ENE 18:35:30 22° E
Cosmos 2219 Rocket 3.7 18:29:38 10° WSW 18:34:50 38° NW 18:40:04 10° NNE
USA 59 Rocket 0.0 18:33:59 10° WNW 18:37:06 50° SW 18:38:24 33° S
Cosmos 1346 Rocket 2.4 18:34:22 10° NNW 18:38:01 87° ENE 18:39:22 37° SSE
RESURS DK-1 2.9 18:42:08 34° ESE 18:42:08 34° ESE 18:45:38 10° NE
NOSS 0 Rocket 3.9 18:38:08 10° SSW 18:44:23 87° SE 18:50:40 10° NE
Cosmos 1674 Rocket 3.7 18:42:27 10° NNW 18:46:45 66° W 18:49:09 25° S
Cosmos 2369 Rocket 2.4 18:44:45 10° NNW 18:50:20 63° NE 18:53:07 30° ESE
Cosmos 1862 4.5 18:47:59 10° N 18:50:59 24° ENE 18:51:23 23° ENE
Cosmos 1908 Rocket 3.7 18:51:54 38° SSE 18:53:11 53° E 18:57:25 10° NNE
Cosmos 405 Rocket 3.0 18:55:40 10° N 18:58:14 36° ENE 18:58:14 36° ENE
Cosmos 1125 Rocket 3.4 18:55:00 13° SSW 18:59:39 75° ESE 19:04:55 10° NNE
Cosmos 2278 Rocket 3.8 18:56:03 10° NW 19:00:43 27° WSW 19:05:01 11° SSW
Cosmos 1656 Rocket 3.8 18:56:42 10° NW 19:02:06 66° WSW 19:04:39 32° S
Cosmos 1782 Rocket 4.2 19:01:50 35° ESE 19:02:13 36° E 19:06:10 10° NNE
Cosmos 2263 4.4 18:57:31 10° NNW 19:03:07 62° NE 19:05:44 32° ESE
SJ 16-02 3.5 19:00:32 10° N 19:03:17 16° NE 19:05:32 12° ENE
NOSS 2-1 (E) 3.6 19:00:22 10° WNW 19:03:29 44° SW 19:03:59 41° SSW
USA 234 3.2 18:56:54 10° ENE 19:03:29 90° SE 19:10:05 10° WSW
COSMOS 2428 3.5 18:58:15 10° SW 19:03:52 54° NW 19:09:31 10° NNE
IRS-1C Rocket 4.3 19:01:19 26° S 19:04:18 65° WSW 19:09:35 10° NNW
NOSS 2-1 (C) 3.8 19:03:09 10° WNW 19:06:12 38° SW 19:06:39 36° SSW
NOSS 2-1 (D) 4.0 19:03:37 10° WNW 19:06:37 34° SW 19:07:06 32° SSW
SL-08 R/B 4.4 19:02:36 23° S 19:06:37 79° E 19:12:45 10° NNE
Cosmos 1943 Rocket 4.3 19:07:55 10° WNW 19:11:47 19° W 19:15:38 10° SW
Meteor 2-8 Rocket 4.5 19:07:23 16° SSW 19:12:19 82° WNW 19:18:25 10° N
NOSS 3-1 (A) 4.1 19:06:38 10° NW 19:12:53 61° NNE 19:18:50 18° ESE
DNEPR-1 R/B 3.5 19:10:06 10° SW 19:14:20 85° NW 19:18:56 10° NE
Cosmos 2221 Rocket 3.9 19:10:25 10° NNW 19:14:45 59° W 19:16:28 34° SSW
Cosmos 921 Rocket 3.9 19:15:32 10° NNW 19:19:45 39° NE 19:20:52 33° E
Terra 4.4 19:18:17 10° WSW 19:20:32 13° W 19:22:48 10° NW
COSMOS 2455 3.5 19:20:05 10° NW 19:25:58 50° NE 19:29:24 24° E
Cosmos 1023 Rocket 4.5 19:22:20 10° NNW 19:27:29 69° ENE 19:28:59 45° SE
Cosmos 2150 Rocket 4.1 19:28:19 46° SE 19:29:08 51° ESE 19:34:10 10° NE
Ariane Rocket 3.9 19:29:37 24° SSW 19:32:07 41° W 19:36:53 10° NNW
SL-16 R/B 2.4 19:31:41 43° SSE 19:32:54 51° ESE 19:38:23 10° NE
SWAS 4.3 19:29:56 10° NNW 19:34:00 72° NE 19:34:27 64° ESE
Lacrosse 5 rocket 1.1 19:31:23 10° W 19:34:17 60° NW 19:34:17 60° NW
Cosmos 2058 2.8 19:32:24 10° N 19:36:20 61° ENE 19:36:28 61° E
Cosmos 44 4.3 19:37:56 32° E 19:37:56 32° E 19:41:47 10° ENE
Cosmos 2346 Rocket 4.4 19:32:41 10° N 19:38:51 82° ENE 19:41:07 42° SSE
Cosmos 1315 Rocket 3.3 19:40:41 43° ENE 19:40:41 43° ENE 19:43:44 10° NNE
IKONOS-2 4.5 19:38:57 10° NNE 19:42:56 60° E 19:42:56 60° E
Cosmos 1300 Rocket 3.4 19:42:33 60° SSW 19:43:18 85° W 19:47:37 10° N
TSX-5 4.4 19:38:47 10° SW 19:43:30 63° NW 19:47:25 10° NNE
SeaSat 1 2.5 19:42:58 50° S 19:44:07 68° WSW 19:49:02 10° NW
Helios 1A 2.9 19:40:45 10° NNE 19:44:31 60° E 19:44:31 60° E
Cosmos 1536 Rocket 4.5 19:40:59 10° N 19:44:56 34° ENE 19:45:19 33° E
Cosmos 1934 Rocket 4.1 19:42:07 26° SSW 19:45:51 75° WNW 19:52:06 10° N
Cosmos 1447 Rocket 4.4 19:43:37 10° N 19:49:59 85° E 19:52:09 44° SSE
ATLAS 5 CENTAUR R/B 2.6 19:47:56 10° NW 19:51:20 36° NNE 19:53:07 25° ENE
Cosmos 2084 Rocket 3.3 19:50:04 40° WSW 19:51:28 84° NW 19:55:38 10° NE
Cosmos 1869 3.4 19:53:24 56° W 19:53:29 56° WNW 19:57:01 10° N
Helios 1B rocket 2.2 19:53:53 67° WNW 19:53:53 67° WNW 19:57:06 10° NNW
Meteor 2-3 Rocket 4.4 19:49:12 10° N 19:54:34 42° ENE 19:56:10 34° ESE
Cosmos 371 Rocket 3.9 19:51:06 10° NNW 19:55:47 46° NE 19:56:56 39° E
Cosmos 407 Rocket 3.7 19:51:35 10° NNW 19:56:43 59° ENE 19:57:57 46° ESE
ATLAS 3B R/B 4.0 19:52:53 10° WNW 20:00:28 46° N 20:07:54 10° ENE
NOSS 3-4 (A) 3.5 19:57:17 10° WSW 20:02:42 68° NNW 20:08:56 10° NE
NOSS 3-4 (C) 3.5 19:57:45 10° WSW 20:03:13 69° NNW 20:09:29 10° NE
Cosmos 1140 Rocket 3.4 19:58:10 10° NNW 20:03:20 74° WSW 20:04:15 59° S
ARIANE 6 FM1 Upper Stage 4.4 20:02:02 10° WNW 20:05:40 31° N 20:09:16 10° ENE
Cosmos 2237 Rocket 3.3 20:01:29 10° WSW 20:06:56 45° NW 20:12:25 10° NNE
CZ-2C R/B 4.4 20:03:09 10° NNE 20:06:56 39° E 20:06:56 39° E
NOSS 3-1 (C) 4.0 20:03:55 10° NW 20:10:34 62° SW 20:13:20 41° SSE
Cosmos 1975 Rocket 3.6 20:07:39 10° NNW 20:11:56 48° W 20:12:31 45° WSW
Cosmos 1459 Rocket 4.5 20:12:01 40° ESE 20:13:22 45° E 20:19:22 10° NNE
Cosmos 2285 Rocket 4.0 20:10:28 32° SSW 20:13:42 84° WNW 20:20:05 10° NNE
Cosmos 2297 4.2 20:08:33 10° NW 20:14:02 47° WSW 20:15:15 41° SSW
Cosmos 1356 Rocket 3.4 20:15:18 74° NE 20:15:18 74° NE 20:19:03 10° NNE
Okean 1 Rocket 4.4 20:16:43 26° ENE 20:16:43 26° ENE 20:19:51 10° NNE
ALOS 2 2.7 20:17:13 63° E 20:17:25 64° ENE 20:21:48 10° N
RESURS DK-1 3.5 20:17:16 22° WSW 20:19:20 40° NW 20:23:07 10° NNE
Cosmos 1605 Rocket 4.0 20:17:09 38° SSW 20:19:33 72° WNW 20:25:42 10° N
Cosmos 2298 Rocket 4.1 20:20:41 44° SW 20:22:25 76° WNW 20:27:46 10° NNE
Cosmos 1656 4.2 20:18:01 10° NNW 20:23:20 50° NE 20:25:13 35° E
Cosmos 1862 4.3 20:22:33 10° NNW 20:25:31 36° WNW 20:25:31 36° WNW
ARIANE 5 R/B 2.4 20:26:44 88° SW 20:26:45 89° W 20:31:08 10° NNW
Spot 4 3.6 20:32:16 76° SSW 20:32:37 83° WSW 20:37:23 10° NNW
Cosmos 1818 4.1 20:27:25 10° NW 20:32:50 57° NNE 20:35:11 32° E
Cosmos 2369 Rocket 3.2 20:29:08 10° NW 20:34:02 32° WSW 20:34:53 30° SW
Cosmos 2173 Rocket 3.9 20:38:04 54° SSE 20:39:17 67° E 20:45:20 10° NNE
ACS3 Solar Sail 4.0 20:38:51 10° NE 20:40:50 12° ENE 20:42:49 10° E
SJ 16-02 1.3 20:37:52 10° NNW 20:42:01 71° NE 20:42:01 71° NE
USA 234 3.3 20:39:57 10° E 20:46:32 79° N 20:53:06 10° W
Cosmos 1190 Rocket 4.1 20:42:02 10° NNW 20:47:21 69° ENE 20:48:16 56° ESE
Cosmos 2100 Rocket 3.9 20:47:41 57° S 20:49:02 79° E 20:55:14 10° NNE
Cosmos 1697 Rocket 3.9 20:44:24 10° NNW 20:49:39 37° NE 20:53:12 18° E
MetOp-A 3.8 20:49:22 69° ESE 20:49:52 77° ENE 20:54:59 10° NNW
Cosmos 2360 4.4 20:47:29 10° NNW 20:53:11 67° NE 20:54:45 47° ESE
Cosmos 1943 3.1 20:52:38 65° S 20:53:22 75° ESE 20:59:03 10° NE
Meteor 2-1 Rocket 4.4 20:53:51 56° SE 20:54:43 63° E 21:00:29 10° NNE
Cosmos 921 Rocket 4.1 20:53:44 10° NW 20:57:26 35° W 20:57:26 35° W
NOSS 3-1 (A) 4.0 20:57:17 10° NW 21:04:00 62° SW 21:06:11 47° S
CZ-2C R/B 2.9 21:03:23 52° ESE 21:04:32 66° ENE 21:10:00 10° NNW
Cosmos 1980 Rocket 3.9 21:01:19 10° NNW 21:06:17 29° NNE 21:11:15 10° E
BREEZE-M R/B 4.3 20:57:45 10° WSW 21:06:23 56° S 21:11:56 10° E
Cosmos 332 Rocket 4.1 21:06:52 10° NNW 21:11:40 58° ENE 21:12:20 52° E
COSMOS 2455 2.9 21:06:10 10° NW 21:12:02 55° WSW 21:12:30 54° SW
Cosmos 304 Rocket 4.3 21:07:43 10° NW 21:11:56 46° W 21:11:56 46° W
Cosmos 2228 4.2 21:15:35 32° ENE 21:15:35 32° ENE 21:18:53 10° NNE
SL-16 R/B 3.2 21:13:28 20° WSW 21:17:08 44° NW 21:22:36 10° NNE
Cosmos 44 3.7 21:16:10 42° WSW 21:17:53 67° NW 21:23:16 10° NE
Cosmos 2251 Rocket 3.4 21:13:38 10° NNW 21:18:57 73° WSW 21:19:17 70° SW
Cosmos 968 Rocket 4.0 21:14:36 10° NNW 21:19:42 52° NE 21:21:08 40° ESE
Cosmos 676 Rocket 4.0 21:14:24 10° NNW 21:19:45 77° ENE 21:20:32 63° ESE
Cosmos 1420 Rocket 4.2 21:20:22 54° ESE 21:20:24 54° ESE 21:25:34 10° NE
Cosmos 1954 Rocket 3.8 21:16:49 10° NNW 21:22:07 83° WSW 21:22:29 76° S
Cosmos 1864 Rocket 4.4 21:23:06 56° SSW 21:24:34 86° W 21:30:58 10° N
Cosmos 2151 Rocket 4.0 21:27:43 52° WNW 21:27:46 52° WNW 21:32:05 10° N
SL-08 R/B 4.4 21:29:44 59° S 21:30:58 81° E 21:37:12 10° NNE
ATLAS 5 CENTAUR R/B 2.3 21:29:44 10° NW 21:32:15 39° WNW 21:32:15 39° WNW
Cosmos 1725 Rocket 4.0 21:33:54 55° SSW 21:35:26 81° WNW 21:41:48 10° N
Cosmos 371 Rocket 4.3 21:31:32 10° NW 21:35:22 34° W 21:35:22 34° W
CZ-2C R/B 2.9 21:31:24 10° NNE 21:36:26 75° ESE 21:36:52 70° SSE
Cosmos 1802 Rocket 4.0 21:35:01 52° SW 21:36:37 75° WNW 21:42:56 10° N
Cosmos 2056 Rocket 4.0 21:36:55 45° ESE 21:37:10 45° ESE 21:42:19 10° NE
Okean 2 Rocket 3.5 21:37:25 54° WNW 21:37:25 54° WNW 21:41:48 10° N
Meteor 2-3 Rocket 4.3 21:32:31 10° NNW 21:37:46 42° W 21:38:25 40° WSW
Cosmos 1782 3.8 21:40:09 36° NE 21:40:09 36° NE 21:42:31 10° NNE
Cosmos 1743 4.4 21:37:09 10° NNW 21:38:32 24° NNW 21:38:32 24° NNW
Cosmos 1626 Rocket 3.9 21:36:34 10° N 21:40:48 55° ENE 21:40:49 55° ENE
Cosmos 1892 Rocket 4.0 21:40:20 10° NNW 21:44:16 52° WNW 21:44:16 52° WNW
ARIANE 6 FM1 Upper Stage 3.3 21:41:23 10° NW 21:45:18 51° NNE 21:45:58 45° ENE
Cosmos 1624 Rocket 4.3 21:46:57 50° ESE 21:47:08 50° ESE 21:52:09 10° NE
ATLAS 3B R/B 3.3 21:44:32 10° NW 21:52:27 68° NNE 22:00:01 10° ESE
Okean 1 Rocket 3.7 21:53:43 43° WNW 21:53:46 43° WNW 21:57:56 10° N
ALOS 2 4.4 21:54:36 20° W 21:54:36 20° W 21:57:31 10° NW
Cosmos 1833 Rocket 3.7 21:54:11 31° ESE 21:54:43 32° ESE 21:59:38 10° NE
Cosmos 2233 Rocket 3.9 21:53:29 55° SSW 21:55:00 82° WNW 22:01:20 10° N
USA 281 3.5 21:54:57 25° SE 21:58:59 67° NE 22:05:31 10° NNW
USA 229 DEB 4.0 21:53:39 10° NW 22:00:52 81° NE 22:08:59 10° SE
USA 229 4.0 21:53:42 10° NW 22:00:56 80° NE 22:09:03 10° SE
PSLV R/B 4.5 21:57:23 10° N 22:01:16 36° WNW 22:01:30 36° WNW
Sich 1 Rocket 4.4 22:02:13 40° WNW 22:02:23 41° WNW 22:06:35 10° N
Meteor 1-27 4.2 22:04:30 59° SSW 22:05:41 80° WNW 22:11:29 10° NNE
Cosmos 1656 4.2 22:01:49 10° NW 22:06:36 40° WSW 22:06:36 40° WSW
Meteor 1-20 Rocket 4.1 22:03:56 10° NNW 22:09:27 77° ENE 22:10:42 54° SSE
ATLAS 2AS CENTAUR R/B 3.5 22:08:25 32° SE 22:09:41 34° ESE 22:15:41 10° ENE
Cosmos 2151 3.0 22:06:57 10° N 22:11:02 73° ENE 22:11:02 73° ENE
Cosmos 2016 Rocket 4.5 22:10:46 40° WSW 22:12:42 53° WNW 22:18:55 10° N
Cosmos 1455 Rocket 3.4 22:12:41 52° WNW 22:12:44 52° WNW 22:17:06 10° N
Landsat 5 3.5 22:09:22 10° NNE 22:13:28 73° WNW 22:13:28 73° WNW
ARGOS Delta rocket 4.4 22:09:48 10° N 22:13:56 40° WNW 22:14:19 40° W
Cosmos 2061 Rocket 4.0 22:14:37 50° SW 22:16:14 70° WNW 22:22:27 10° N
Cosmos 1818 4.0 22:11:09 10° NW 22:15:46 44° WSW 22:15:46 44° WSW
DELTA 2 DEB (DPAF) 4.1 22:13:30 10° NNE 22:16:28 57° N 22:16:28 57° N
Nadezhda 4 Rocket 4.1 22:11:02 10° N 22:17:15 71° ENE 22:19:34 40° SSE
Aureole 3 Rocket 3.1 22:17:34 76° WSW 22:17:48 79° WNW 22:23:21 10° N
Cosmos 292 Rocket 3.6 22:13:32 10° NNW 22:18:22 76° WSW 22:18:29 75° SW
Cosmos 1464 Rocket 4.4 22:16:22 38° SE 22:18:23 53° E 22:24:20 10° NNE
Cosmos 1371 Rocket 3.9 22:18:24 66° S 22:19:08 82° ESE 22:24:27 10° NNE
SJ 16-02 3.4 22:16:50 10° NW 22:18:30 16° WNW 22:18:30 16° WNW
CZ-4C R/B 4.1 22:16:36 10° NNE 22:18:46 39° N 22:18:46 39° N
Cosmos 1544 Rocket 3.7 22:19:57 64° ESE 22:20:07 64° E 22:24:31 10° NNE
Cosmos 1758 Rocket 3.5 22:18:19 10° NNW 22:22:21 68° WNW 22:22:21 68° WNW
Meteor 1-22 4.5 22:17:37 10° NNW 22:23:02 71° W 22:23:47 62° SSW
Cosmos 1805 4.2 22:21:14 10° N 22:23:57 36° NE 22:23:57 36° NE
ACS3 Solar Sail 2.2 22:18:47 10° NNE 22:24:39 53° E 22:26:41 38° SSE
Cosmos 1603 4.0 22:23:25 41° WSW 22:25:14 60° NW 22:30:54 10° NNE
Cosmos 1741 Rocket 3.9 22:23:28 10° NNW 22:28:48 82° WSW 22:29:50 59° SSE
USA 234 3.1 22:23:05 10° ESE 22:29:39 77° SSW 22:36:13 10° WNW
Cosmos 1697 Rocket 2.6 22:28:23 10° NW 22:33:59 65° WSW 22:34:53 56° SSW
Meteor 2-10 4.4 22:32:40 10° N 22:37:58 63° ENE 22:40:25 33° SE
Cosmos 1452 Rocket 4.2 22:37:06 36° SE 22:38:15 41° ESE 22:43:09 10° NE
Cosmos 1513 Rocket 4.5 22:40:26 46° SSW 22:42:30 83° WNW 22:48:54 10° N
CZ-2C R/B 3.8 22:44:49 27° W 22:45:11 28° W 22:49:52 10° NNW
IDEFIX/ARIANE 42P 3.4 22:40:19 10° NNE 22:45:14 42° E 22:46:59 31° SE
Cosmos 2369 4.3 22:39:48 10° NNW 22:45:25 55° NE 22:51:00 10° SE
Cosmos 2026 Rocket 4.1 22:43:48 10° N 22:50:01 72° ENE 22:53:28 28° SSE
Cosmos 1980 Rocket 2.1 22:45:17 10° NW 22:51:01 89° NE 22:54:15 27° SSE
Cosmos 2333 Rocket 3.9 22:46:06 10° NNW 22:51:13 33° NE 22:56:20 10° E
Cosmos 1825 Rocket 3.5 22:47:17 10° N 22:51:37 75° ENE 22:52:21 58° SE
Cosmos 2228 3.9 22:51:49 34° WNW 22:52:02 35° WNW 22:55:55 10° N
Cosmos 1092 Rocket 4.2 22:47:00 10° N 22:53:11 66° ENE 22:56:55 25° SSE
Cosmos 1437 Rocket 3.1 22:53:42 48° E 22:53:42 48° E 22:56:49 10° NNE
Cosmos 1602 Rocket 3.6 22:49:49 10° NNW 22:54:05 59° W 22:54:05 59° W
Cosmos 1076 Rocket 3.9 22:50:31 10° N 22:54:49 61° ENE 22:56:05 41° SE
Cosmos 968 Rocket 4.3 22:56:35 10° NW 23:01:01 33° W 23:01:01 33° W
Spot 1 3.7 22:57:25 10° NNE 23:01:29 83° WNW 23:01:50 73° SW
Resurs 1-4 Rocket 4.1 22:58:47 10° NE 23:02:46 21° E 23:06:44 10° SE
Okean 1-7 Rocket 3.4 23:00:15 10° NNW 23:04:38 72° W 23:05:05 65° SW
Meteor 1-25 Rocket 4.4 23:02:35 10° NNW 23:08:18 56° W 23:09:53 43° SW
H-2A R/B 3.9 23:11:22 11° SE 23:14:24 31° ENE 23:17:39 10° N
ADEOS Rocket 4.0 23:10:39 10° NNE 23:17:44 54° E 23:23:11 20° S
Cosmos 2360 Rocket 4.0 23:12:47 10° NNW 23:17:52 32° NE 23:22:57 10° E
Cosmos 2056 Rocket 4.3 23:17:08 29° W 23:19:18 43° NW 23:24:28 10° NNE
Cosmos 2082 Rocket 3.4 23:18:10 20° SSE 23:21:07 33° ESE 23:26:10 10° NE
GP-B 3.0 23:16:49 10° N 23:21:13 80° W 23:22:13 53° SSW
ARIANE 6 FM1 Upper Stage 4.3 23:20:30 10° WNW 23:21:54 20° WNW 23:21:54 20° WNW
Cosmos 2322 Rocket 3.7 23:23:02 10° NNW 23:28:15 37° NE 23:33:27 10° ESE
Cosmos 1634 Rocket 4.2 23:24:32 25° S 23:28:15 65° E 23:34:22 10° NNE
Cosmos 1302 Rocket 4.2 23:29:11 35° S 23:31:16 64° ESE 23:36:25 10° NNE
BREEZE-M DEB (TANK) 4.5 23:09:38 10° WSW 23:32:09 61° S 23:37:18 10° ESE
Cosmos 1627 Rocket 4.5 23:26:33 10° NNW 23:32:42 68° W 23:36:00 29° S
USA 267 3.5 23:26:55 10° ENE 23:33:20 54° SE 23:36:26 31° SSW
Cosmos 2058 Rocket 3.8 23:33:31 25° SSE 23:35:46 49° E 23:40:04 10° NNE
MOZ.5/SAFIR/RUBIN 5/SL-8 3.7 23:33:16 27° SSE 23:35:52 89° W 23:40:34 10° NNW
Cosmos 2237 4.2 23:31:00 10° NW 23:36:47 89° WSW 23:42:31 10° SSE
Cosmos 1536 3.0 23:33:35 10° N 23:37:14 61° ENE 23:38:58 28° SSE
Gbstr 26 Del rocket 2.9 23:38:00 47° SSE 23:38:00 47° SSE 23:41:30 10° E
Cosmos 1833 Rocket 2.9 23:35:50 33° WSW 23:38:19 63° NW 23:43:55 10° NNE
Cosmos 1606 Rocket 3.6 23:37:08 45° SW 23:38:22 67° WNW 23:42:48 10° N
SL-16 R/B 2.8 23:33:07 10° NNW 23:38:45 59° NE 23:44:21 10° SE
Cosmos 1933 4.1 23:39:14 32° W 23:39:38 32° WNW 23:43:06 10° N
SL-4 R/B 2.2 23:42:00 44° S 23:42:03 44° S 23:45:43 10° E
ATLAS 3B R/B 3.0 23:35:39 10° NW 23:43:12 53° SW 23:50:21 10° SSE
FENGYUN 3A 3.7 23:37:56 10° NNE 23:43:25 84° ESE 23:46:15 30° SSW
USA 281 3.8 23:41:47 30° SW 23:43:53 37° WSW 23:49:56 10° NW
Cosmos 1331 Rocket 4.3 23:41:51 33° WSW 23:44:04 57° NW 23:49:17 10° NNE
Envisat 4.0 23:39:22 10° NNE 23:44:12 42° E 23:47:59 16° SSE
NOSS 3-4 (A) 4.5 23:40:29 10° NW 23:46:28 51° NNE 23:53:30 10° E
Cosmos 1867 3.8 23:44:20 32° SSW 23:46:44 63° SE 23:52:09 10° NE
NOSS 3-4 (C) 4.5 23:40:58 10° NW 23:46:59 51° NNE 23:54:02 10° E
Cosmos 1766 2.6 23:45:55 10° NNW 23:49:08 89° ENE 23:49:49 53° SSE
CZ-4C R/B 3.2 23:47:13 19° SSE 23:49:21 28° ESE 23:53:53 10° ENE
NOAA 11 4.4 23:45:55 10° NNE 23:51:21 67° ESE 23:54:53 22° S
USA 229 DEB 4.3 23:44:42 10° NW 23:51:33 41° WSW 23:59:02 10° S
USA 229 4.3 23:44:45 10° NW 23:51:37 41° WSW 23:59:08 10° S
Cosmos 2098 Rocket 4.2 23:49:40 30° WSW 23:51:59 46° WNW 23:57:28 10° N
Cosmos 2219 Rocket 3.9 23:47:04 10° NNW 23:52:11 34° NE 23:57:19 10° ESE
CZ-2D R/B 3.1 23:47:50 10° NNE 23:52:48 41° E 23:57:19 12° SSE
